This demonstration page uses our WeatherBlox Daily Observations layout. Learn more.

Left ArrowRight Arrow

Hourly Observations for March 13, 2015

Temp ( °F °C ) Dew Point ( °F °C ) Humidity (%) Winds ( mph kmh ) Pressure ( in mb ) Visibility ( mi km ) Precip ( " mm )
12:15 am 00:15 Clear 34 1 28 -2 81 81 NNW 5 7 30.59 1036 10 16 N/A
12:35 am 00:35 Clear 36 2 27 -3 70 70 N N/A 30.59 1036 10 16 N/A
12:55 am 00:55 Clear 32 undefined 27 -3 80 80 N N/A 30.59 1036 10 16 N/A
1:15 am 01:15 Clear 32 undefined 28 -2 87 87 SSW 5 7 30.59 1036 10 16 N/A
1:35 am 01:35 Clear 32 undefined 27 -3 80 80 SSW 3 6 30.59 1036 10 16 N/A
1:55 am 01:55 Clear 32 undefined 27 -3 80 80 N N/A 30.59 1036 10 16 N/A
2:15 am 02:15 Clear 32 undefined 27 -3 80 80 N N/A 30.59 1036 10 16 N/A
2:35 am 02:35 Clear 34 1 27 -3 75 75 N N/A 30.59 1036 10 16 N/A
2:55 am 02:55 Clear 32 undefined 27 -3 80 80 N N/A 30.59 1036 10 16 N/A
3:15 am 03:15 Clear 32 undefined 28 -2 87 87 N N/A 30.59 1036 10 16 N/A
3:35 am 03:35 Clear 32 undefined 28 -2 87 87 N 3 6 30.59 1036 10 16 N/A
3:55 am 03:55 Clear 32 undefined 27 -3 80 80 N N/A 30.59 1036 10 16 N/A
4:15 am 04:15 Clear 32 undefined 27 -3 80 80 N N/A 30.59 1036 10 16 N/A
4:35 am 04:35 Clear 32 undefined 28 -2 87 87 N N/A 30.59 1036 10 16 N/A
4:55 am 04:55 Clear 32 undefined 27 -3 80 80 N N/A 30.59 1036 10 16 N/A
5:15 am 05:15 Clear 32 undefined 28 -2 87 87 N N/A 30.59 1036 10 16 N/A
5:35 am 05:35 Clear 32 undefined 28 -2 87 87 ENE 6 9 30.59 1036 10 16 N/A
5:55 am 05:55 Clear 30 -1 27 -3 86 86 N N/A 30.59 1036 10 16 N/A
6:15 am 06:15 Clear 30 -1 28 -2 93 93 N N/A 30.59 1036 10 16 N/A
6:35 am 06:35 Clear 30 -1 27 -3 86 86 SE 3 6 30.62 1037 10 16 N/A
6:55 am 06:55 Clear 28 -2 27 -3 93 93 ESE 3 6 30.62 1037 10 16 N/A
7:15 am 07:15 Clear 30 -1 27 -3 86 86 N N/A 30.62 1037 10 16 N/A
7:35 am 07:35 Sunny 30 -1 27 -3 86 86 N N/A 30.65 1038 10 16 N/A
7:55 am 07:55 Sunny 30 -1 27 -3 86 86 N N/A 30.65 1038 10 16 N/A
8:15 am 08:15 Sunny 32 undefined 27 -3 80 80 ESE 3 6 30.62 1037 10 16 N/A
8:35 am 08:35 Sunny 36 2 27 -3 70 70 SE 3 6 30.62 1037 10 16 N/A
8:55 am 08:55 Sunny 37 3 23 -5 56 56 SSE 6 9 30.62 1037 10 16 N/A
9:15 am 09:15 Sunny 37 3 21 -6 52 52 SSE 5 7 30.62 1037 10 16 N/A
9:35 am 09:35 Sunny 41 5 19 -7 42 42 S 6 9 30.62 1037 10 16 N/A
9:55 am 09:55 Sunny 41 5 16 -9 36 36 SE 7 11 30.62 1037 10 16 N/A
10:15 am 10:15 Sunny 43 6 12 -11 29 29 SSE 9 15 30.62 1037 10 16 N/A
10:35 am 10:35 Sunny 43 6 12 -11 29 29 SSE 10 17 30.59 1036 10 16 N/A
10:55 am 10:55 Sunny 45 7 14 -10 29 29 S 9 15 30.59 1036 10 16 N/A
11:15 am 11:15 Sunny 45 7 12 -11 27 27 SSE 10 17 30.59 1036 10 16 N/A
11:35 am 11:35 Sunny 46 8 14 -10 27 27 SSE 8 13 30.59 1036 10 16 N/A
11:55 am 11:55 Sunny 46 8 14 -10 27 27 S 12 19 30.56 1035 10 16 N/A
12:15 pm 12:15 Sunny 50 10 18 -8 28 28 S 13 20 30.56 1035 7 11 N/A
12:35 pm 12:35 Sunny 50 10 18 -8 28 28 S 12 19 30.56 1035 7 11 N/A
12:55 pm 12:55 Sunny 50 10 18 -8 28 28 SE 12 19 30.53 1034 10 16 N/A
1:15 pm 13:15 Sunny 50 10 18 -8 28 28 S 8 13 30.53 1034 10 16 N/A
1:35 pm 13:35 Sunny 52 11 19 -7 28 28 SE 8 13 30.53 1034 10 16 N/A
1:55 pm 13:55 Sunny 54 12 19 -7 26 26 SSE 12 19 30.53 1034 10 16 N/A
2:15 pm 14:15 Sunny 52 11 19 -7 28 28 S 10 17 30.53 1034 10 16 N/A
2:35 pm 14:35 Sunny 52 11 19 -7 28 28 SSE 9 15 30.50 1033 10 16 N/A
2:55 pm 14:55 Sunny 52 11 19 -7 28 28 S 12 19 30.48 1032 10 16 N/A
3:15 pm 15:15 Sunny 52 11 19 -7 28 28 SE 13 20 30.48 1032 10 16 N/A
3:35 pm 15:35 Sunny 52 11 19 -7 28 28 SSE 14 22 30.48 1032 10 16 N/A
3:55 pm 15:55 Sunny 52 11 19 -7 28 28 SSE 10 17 30.48 1032 10 16 N/A
4:15 pm 16:15 Sunny 52 11 19 -7 28 28 SSE 10 17 30.45 1031 10 16 N/A
4:35 pm 16:35 Sunny 52 11 19 -7 28 28 SE 10 17 30.45 1031 10 16 N/A
4:55 pm 16:55 Partly Cloudy 52 11 21 -6 30 30 SE 9 15 30.45 1031 10 16 N/A
5:15 pm 17:15 Partly Cloudy 52 11 21 -6 30 30 SSE 10 17 30.45 1031 10 16 N/A
5:35 pm 17:35 Partly Cloudy 52 11 23 -5 32 32 SSE 10 17 30.45 1031 10 16 N/A
5:55 pm 17:55 Partly Cloudy 52 11 23 -5 32 32 SSE 9 15 30.42 1030 10 16 N/A
6:15 pm 18:15 Mostly Cloudy 52 11 23 -5 32 32 SE 7 11 30.42 1030 10 16 N/A
6:35 pm 18:35 Mostly Cloudy 52 11 23 -5 32 32 SSE 9 15 30.42 1030 10 16 N/A
6:55 pm 18:55 Mostly Cloudy 52 11 25 -4 35 35 SSE 9 15 30.42 1030 10 16 N/A
7:15 pm 19:15 Cloudy 52 11 25 -4 35 35 SSE 7 11 30.42 1030 10 16 N/A
7:35 pm 19:35 Cloudy 50 10 27 -3 40 40 SE 6 9 30.42 1030 10 16 N/A
7:55 pm 19:55 Cloudy 50 10 27 -3 40 40 SSE 6 9 30.42 1030 10 16 N/A
8:15 pm 20:15 Cloudy 50 10 27 -3 40 40 S 6 9 30.42 1030 10 16 N/A
8:35 pm 20:35 Cloudy 50 10 27 -3 40 40 SSE 7 11 30.42 1030 10 16 N/A
8:55 pm 20:55 Cloudy 50 10 28 -2 43 43 S 7 11 30.42 1030 10 16 N/A
9:15 pm 21:15 Cloudy 48 9 28 -2 46 46 S 8 13 30.42 1030 10 16 N/A
9:35 pm 21:35 Cloudy with Drizzle 48 9 28 -2 46 46 S 9 15 30.42 1030 10 16 N/A
9:55 pm 21:55 Cloudy 48 9 30 -1 50 50 S 9 15 30.42 1030 10 16 N/A
10:15 pm 22:15 Cloudy 46 8 30 -1 53 53 S 13 20 30.39 1029 10 16 N/A
10:35 pm 22:35 Cloudy 46 8 32 undefined 57 57 SSW 10 17 30.39 1029 10 16 N/A
10:55 pm 22:55 Cloudy with Light Rain 45 7 37 3 76 76 SSW 8 13 30.39 1029 10 16 N/A
11:15 pm 23:15 Cloudy with Rain 43 6 39 4 87 87 S 7 11 30.39 1029 10 16 N/A
11:35 pm 23:35 Cloudy with Drizzle 43 6 39 4 87 87 SSE 8 13 30.36 1028 10 16 N/A
11:55 pm 23:55 Cloudy 43 6 39 4 87 87 SSE 6 9 30.36 1028 10 16 N/A

Powered by AerisWeather